www.pogodaiklimat.ru
ПОГОДА в Белград аэропорту
Время
(UTC), дата
13 15.10
14 15.10
15 15.10
16 15.10
17 15.10
18 15.10
19 15.10
20 15.10
21 15.10
22 15.10
23 15.10
00 16.10
01 16.10
02 16.10
03 16.10
04 16.10
05 16.10
06 16.10
07 16.10
08 16.10
09 16.10
10 16.10
11 16.10
12 16.10
13 16.10
14 16.10
15 16.10
16 16.10
17 16.10
18 16.10
19 16.10
20 16.10
21 16.10
22 16.10
23 16.10
00 17.10
01 17.10
02 17.10
03 17.10
04 17.10
05 17.10
06 17.10
07 17.10
08 17.10
09 17.10
10 17.10
11 17.10
12 17.10
13 17.10
14 17.10
15 17.10
16 17.10
17 17.10
18 17.10
19 17.10
20 17.10
21 17.10
22 17.10
23 17.10
00 18.10
01 18.10
02 18.10
03 18.10
04 18.10
05 18.10
06 18.10
09 18.10
10 18.10
11 18.10
12 18.10
13 18.10
14 18.10
15 18.10
16 18.10
17 18.10
18 18.10
19 18.10
20 18.10
21 18.10
22 18.10
23 18.10
00 19.10
01 19.10
02 19.10
03 19.10
04 19.10
05 19.10
06 19.10
07 19.10
08 19.10
09 19.10
10 19.10
11 19.10
12 19.10
13 19.10
14 19.10
15 19.10
16 19.10
17 19.10
18 19.10
19 19.10
20 19.10
21 19.10
22 19.10
23 19.10
00 20.10
01 20.10
02 20.10
03 20.10
04 20.10
05 20.10
06 20.10
07 20.10
08 20.10
09 20.10
10 20.10
11 20.10
12 20.10
13 20.10
14 20.10
15 20.10
16 20.10
17 20.10
18 20.10
19 20.10
20 20.10
21 20.10
22 20.10
23 20.10
00 21.10
01 21.10
02 21.10
03 21.10
04 21.10
05 21.10
06 21.10
07 21.10
08 21.10
09 21.10
10 21.10
11 21.10
12 21.10
13 21.10
14 21.10
15 21.10
16 21.10
17 21.10
18 21.10
19 21.10
20 21.10
21 21.10
22 21.10
23 21.10
00 22.10
01 22.10
02 22.10
03 22.10
05 22.10
06 22.10
07 22.10
08 22.10
09 22.10
10 22.10
11 22.10
12 22.10
Ветер
(напр.,м/с)
Видим. Явления Облачность Т
(С)
Тd
(С)
f
(%)
Тe
(С)
Тes
(С)
Комфортность P
(гПа)
Po
(гПа)
Тmin
(С)
Tmax
(С)
R
(мм)
R24
(мм)
S
(см)
штиль 0 10 км ясно +25.3 +12.4 45 +27 +33 жарко 1015.3 1004.0
штиль 0 10 км ясно +26.2 +10.7 38 +27 +30 жарко 1014.7 1003.5
штиль 0 10 км ясно +25.3 +11.1 41 +27 +27 жарко 1014.4 1003.1
СВ 1 10 км ясно +21.8 +12.2 54 +24 +24 комфорт 1014.5 1003.1
СВ 1 10 км ясно +20.9 +12.3 58 +24 +24 комфорт 1014.3 1002.9
СВ 1 10 км ясно +19.2 +11.9 63 +21 +21 комфорт 1014.6 1003.1 +26.3
СВ 1 10 км ясно +17.4 +12.4 72 +18 +18 тепло 1014.8 1003.2
ЮВ 2 10 км ясно +16.6 +12.2 75 +17 +17 тепло 1014.8 1003.2
ЮВ 2 8000 м дымка ясно +14.2 +11.3 83 +14 +14 тепло 1014.6 1002.9
Ю 1 10 км ясно +16.1 +10.0 67 +17 +17 тепло 1014.6 1003.0
штиль 0 10 км ясно +14.3 +10.2 76 +14 +14 тепло 1015.2 1003.5
штиль 0 10 км ясно +13.1 +10.3 83 +13 +13 тепло 1015.4 1003.6
штиль 0 8000 м дымка ясно +11.9 +10.3 90 +11 +11 тепло 1015.3 1003.5
штиль 0 7000 м дымка ясно +9.8 +8.2 90 +9 +9 тепло 1015.5 1003.6
штиль 0 5000 м дымка ясно +10.3 +9.8 97 +9 +9 тепло 1015.6 1003.7
ЮВ 1 6000 м местами туман поземный ясно +9.8 +8.9 94 +9 +9 тепло 1015.5 1003.6
штиль 0 2500 м местами туман поземный ясно +9.6 +9.0 96 +9 +9 тепло 1015.4 1003.5
З 1 4000 м дымка ясно +11.0 +9.6 91 +11 +11 тепло 1016.4 1004.5 +7.8
штиль 0 8000 м дымка ясно +14.7 +10.5 76 +14 +17 тепло 1016.7 1005.0
штиль 0 10 км ясно +19.2 +10.4 57 +20 +25 тепло 1016.7 1005.2
ЮЗ 1 20 км ясно +22.6 +8.6 41 +24 +30 комфорт 1016.8 1005.4
ЮЗ 1 20 км ясно +24.3 +6.2 31 +24 +32 комфорт 1016.7 1005.3
штиль 0 20 км ясно +25.0 +5.4 28 +25 +34 комфорт 1016.0 1004.7
ЮЗ 1 20 км ясно +26.1 +5.1 26 +25 +32 комфорт 1015.6 1004.3
З 1 20 км 4/0
[Ci fib]
+26.7 +5.1 25 +26 +30 жарко 1015.4 1004.2
СЗ 2 20 км 3/0
[Ci fib]
+26.2 +4.8 25 +25 +27 комфорт 1015.4 1004.1
штиль 0 20 км 3/0
[Ci fib]
+25.6 +5.3 27 +25 +26 комфорт 1015.3 1004.0
СВ 1 15 км 3/0
[Ci fib]
+22.9 +5.9 33 +23 +23 комфорт 1015.6 1004.2
СВ 1 15 км 3/0
[Ci fib]
+22.0 +5.8 35 +23 +23 комфорт 1015.9 1004.5
СВ 2 10 км ясно +20.0 +5.5 39 +21 +21 комфорт 1016.4 1004.9 +26.8
ЮВ 1 10 км ясно +19.7 +5.9 40 +21 +21 комфорт 1016.9 1005.4
В 1 10 км ясно +15.3 +6.2 55 +16 +16 тепло 1017.5 1005.8
СЗ 2 10 км 3/0
[Ac trans]
+15.8 +6.3 53 +16 +16 тепло 1017.7 1006.0
С 2 10 км 3/0
[Ac trans]
+14.2 +7.5 64 +14 +14 тепло 1018.3 1006.5
З 1 10 км 3/0
[Ac trans]
+13.5 +10.2 80 +14 +14 тепло 1018.8 1007.0
З 1 10 км ясно +12.8 +9.8 82 +13 +13 тепло 1019.0 1007.2
З 2 10 км ясно +11.5 +9.3 86 +10 +10 тепло 1019.3 1007.4
З 2 10 км 3/0
[Ci fib]
+11.7 +10.1 90 +11 +11 тепло 1019.4 1007.5
З 1 8000 м дымка 3/0
[Ci fib]
+10.8 +9.8 94 +10 +10 тепло 1019.3 1007.4
З 1 8000 м дымка 1/0
[Ci fib]
+11.0 +10.5 97 +11 +11 тепло 1019.4 1007.5
штиль 0 5000 м дымка 1/0
[Ci fib]
+10.5 +10.1 97 +10 +10 тепло 1019.5 1007.6
ЮЗ 2 800 м туман местами 6/0
[Ac trans Ci sp]
+11.4 +11.1 98 +10 +10 тепло 1020.2 1008.3 +10.2
штиль 0 5000 м в посл. час туман 6/0
[Ac trans Ci sp]
+12.7 +12.2 97 +12 +13 тепло 1020.3 1008.5
10 км 6/0
[Ac trans Ci sp]
+15.4 +12.5 83 1020.3 1008.6
10 км 5/0
[Ac trans Ci sp]
+18.2 +12.1 68 1020.0 1008.4
15 км 4/0
[Ac trans Ci sp]
+20.0 +12.0 60 1019.8 1008.3
СЗ 1 15 км 3/0
[Ci sp]
+21.7 +12.1 54 +24 +31 комфорт 1019.2 1007.7
15 км ясно +22.6 +11.8 50 1018.4 1007.0
10 км ясно +23.7 +11.3 46 1017.9 1006.5
СВ 2 10 км ясно +24.0 +11.5 45 +25 +28 комфорт 1017.6 1006.2
В 1 10 км ясно +23.5 +11.7 47 +25 +26 комфорт 1017.4 1006.0
СВ 1 10 км ясно +21.7 +11.4 52 +24 +24 комфорт 1017.4 1006.0
СВ 2 10 км ясно +20.5 +11.5 56 +23 +23 комфорт 1017.5 1006.0
СВ 2 15 км ясно +18.1 +11.6 66 +19 +19 тепло 1017.9 1006.3 +24.0
СВ 1 15 км ясно +17.6 +11.5 67 +19 +19 тепло 1018.1 1006.5
штиль 0 15 км ясно +17.5 +11.3 67 +18 +18 тепло 1018.3 1006.7
штиль 0 8000 м дымка ясно +15.5 +10.7 73 +15 +15 тепло 1018.5 1006.8
ЮВ 1 8000 м дымка ясно +13.8 +11.0 83 +14 +14 тепло 1018.6 1006.8
Ю 1 6000 м дымка 4/0
[Ac trans]
+14.4 +12.0 85 +15 +15 тепло 1018.3 1006.6
Ю 1 6000 м дымка 4/0
[Ac trans]
+13.9 +12.4 91 +14 +14 тепло 1018.3 1006.5
З 1 5000 м дымка 3/0
[Ac trans]
+13.0 +11.6 91 +13 +13 тепло 1018.0 1006.2
ЮЗ 1 5000 м дымка ясно +12.9 +11.5 91 +13 +13 тепло 1017.9 1006.1
Ю 2 3500 м дымка 5/0
[Ac trans]
+13.0 +11.8 92 +12 +12 тепло 1017.8 1006.0
ЮЗ 2 3500 м дымка 5/0
[Ac trans]
+12.4 +11.5 94 +11 +11 тепло 1018.0 1006.2
ЮЗ 2 4000 м дымка 4/0
[Ac trans]
+11.9 +11.3 96 +11 +11 тепло 1018.1 1006.3
Ю 2 1500 м дымка 3/0
[Ac trans]
+12.5 +11.4 93 +11 +12 тепло 1018.5 1006.7 +11.3
ЮЗ 2 10 км ясно +18.0 +12.8 72 +19 +24 тепло 1018.7 1007.1
З 2 10 км ясно +20.3 +12.8 62 +23 +29 комфорт 1018.4 1006.9
З 3 15 км ясно +22.4 +12.9 55 +25 +31 комфорт 1017.5 1006.1
З 3 15 км 3/0
[Ci fib]
+23.7 +12.4 49 +26 +30 жарко 1016.8 1005.4
З 2 15 км 3/0
[Ci fib]
+24.1 +11.7 46 +26 +29 жарко 1016.3 1005.0
З 2 10 км 3/0
[Ci fib]
+24.3 +10.8 43 +26 +27 жарко 1016.0 1004.7
З 3 15 км ясно +23.6 +10.9 45 +25 +25 комфорт 1016.1 1004.7
З 2 10 км ясно +21.8 +10.3 48 +24 +24 комфорт 1016.3 1004.9
СЗ 2 10 км ясно +20.3 +10.1 52 +22 +22 комфорт 1016.5 1005.0
С 2 10 км ясно +16.7 +9.5 62 +17 +17 тепло 1017.0 1005.4 +24.3
СВ 1 10 км ясно +17.5 +11.5 68 +19 +19 тепло 1017.5 1005.9
ЮВ 1 10 км ясно +17.1 +10.5 65 +18 +18 тепло 1017.5 1005.9
ЮВ 2 10 км 4/0
[Ac trans]
+15.3 +11.8 80 +15 +15 тепло 1017.6 1005.9
ЮВ 1 10 км 4/0
[Ac trans]
+16.0 +11.3 74 +17 +17 тепло 1017.5 1005.8
Ю 1 10 км ясно +15.3 +11.4 78 +16 +16 тепло 1017.4 1005.7
штиль 0 10 км 4/0 2000 м
[Ac trans]
+12.7 +10.7 88 +12 +12 тепло 1017.8 1006.0
штиль 0 8000 м дымка 4/0
[Ac trans]
+13.5 +11.0 85 +13 +13 тепло 1017.8 1006.0
ЮВ 1 8000 м дымка ясно +12.8 +10.9 88 +13 +13 тепло 1017.7 1005.9
З 1 5000 м дымка ясно +12.8 +11.5 92 +13 +13 тепло 1017.9 1006.1
ЮЗ 1 6000 м дымка ясно +12.9 +12.1 95 +13 +13 тепло 1017.9 1006.1
Ю 1 4000 м местами туман поземный ясно +10.6 +10.0 96 +10 +10 тепло 1018.0 1006.1
штиль 0 2000 м местами туман поземный ясно +11.2 +10.9 98 +10 +11 тепло 1018.4 1006.5 +10.3
ЮЗ 2 4000 м дымка ясно +13.8 +12.1 89 +13 +15 тепло 1018.8 1007.0
Ю 2 7000 м дымка ясно +16.5 +12.2 76 +17 +20 тепло 1018.5 1006.8
Ю 2 8000 м дымка ясно +19.1 +12.4 65 +21 +26 комфорт 1018.2 1006.7
З 1 10 км ясно +21.3 +12.4 57 +24 +31 комфорт 1018.0 1006.5
З 1 10 км ясно +22.7 +11.9 50 +25 +33 комфорт 1017.2 1005.8
Ю 1 10 км ясно +24.4 +11.4 44 +26 +32 жарко 1016.5 1005.2
ЮЗ 1 10 км ясно +25.0 +10.8 41 +26 +31 жарко 1016.4 1005.1
штиль 0 10 км ясно +25.5 +10.3 38 +26 +29 жарко 1016.3 1005.0
З 1 10 км ясно +25.0 +9.8 38 +26 +26 жарко 1016.4 1005.1
В 1 8000 м дымка ясно +21.4 +11.3 53 +23 +23 комфорт 1016.9 1005.5
В 1 10 км ясно +20.8 +11.5 55 +24 +24 комфорт 1017.2 1005.7
В 2 10 км ясно +19.0 +11.8 63 +20 +20 тепло 1017.4 1005.9 +25.5
В 2 6000 м дымка ясно +16.7 +12.3 75 +17 +17 тепло 1017.7 1006.1
СВ 1 6000 м дымка ясно +16.2 +12.3 78 +17 +17 тепло 1018.0 1006.3
штиль 0 5000 м дымка ясно +16.2 +12.1 77 +16 +16 тепло 1018.2 1006.5
штиль 0 5000 м дымка ясно +14.1 +12.1 88 +14 +14 тепло 1018.3 1006.6
штиль 0 4000 м дымка ясно +13.3 +11.5 89 +13 +13 тепло 1018.5 1006.7
Ю 1 5000 м дымка ясно +11.8 +11.3 97 +12 +12 тепло 1018.7 1006.8
ЮВ 1 3500 м дымка ясно +11.1 +9.9 92 +11 +11 тепло 1018.7 1006.8
ЮВ 1 3500 м дымка ясно +12.2 +10.9 92 +12 +12 тепло 1018.4 1006.5
ЮЗ 1 5000 м дымка ясно +12.2 +11.5 95 +12 +12 тепло 1018.8 1007.0
З 1 5000 м дымка ясно +10.9 +10.3 96 +10 +10 тепло 1019.2 1007.3
Ю 2 3000 м дымка ясно +12.1 +11.0 93 +11 +11 тепло 1019.2 1007.4
Ю 3 3000 м дымка ясно +12.3 +10.8 91 +11 +11 тепло 1019.8 1008.0 +10.8
Ю 3 6000 м дымка ясно +14.8 +11.4 80 +14 +15 тепло 1020.2 1008.4
ЮЗ 2 10 км ясно +16.8 +11.1 69 +17 +20 тепло 1020.5 1008.8
ЮЗ 1 15 км ясно +19.6 +11.5 59 +22 +28 комфорт 1020.5 1008.9
Ю 1 20 км ясно +22.3 +11.6 51 +25 +32 комфорт 1020.3 1008.8
Ю 1 20 км ясно +23.8 +11.6 46 +25 +33 комфорт 1019.7 1008.3
штиль 0 15 км 3/0
[Ci fib]
+24.7 +11.4 43 +26 +33 жарко 1019.2 1007.8
ЮЗ 1 15 км 3/0
[Ci fib]
+25.4 +10.7 40 +26 +31 жарко 1018.9 1007.6
ЮЗ 1 20 км ясно +25.8 +10.0 37 +27 +29 жарко 1018.8 1007.5
штиль 0 20 км ясно +25.5 +9.8 37 +26 +27 жарко 1018.7 1007.4
штиль 0 15 км 3/0
[Ci fib]
+22.7 +9.5 43 +24 +24 комфорт 1018.9 1007.5
штиль 0 10 км 3/0
[Ci fib]
+21.4 +9.4 46 +23 +23 комфорт 1019.1 1007.6
штиль 0 10 км 3/0
[Ci fib]
+18.9 +9.5 54 +19 +19 тепло 1019.7 1008.1 +25.8
ЮВ 2 10 км ясно +15.7 +9.4 66 +16 +16 тепло 1019.9 1008.2
В 2 10 км ясно +14.0 +9.9 76 +14 +14 тепло 1020.2 1008.4
Ю 1 10 км ясно +15.2 +9.8 70 +16 +16 тепло 1020.2 1008.5
штиль 0 8000 м дымка ясно +13.0 +10.5 85 +13 +13 тепло 1020.5 1008.7
штиль 0 8000 м дымка ясно +13.4 +10.7 84 +13 +13 тепло 1020.6 1008.8
штиль 0 8000 м дымка ясно +11.8 +9.3 85 +11 +11 тепло 1020.7 1008.8
Ю 1 8000 м дымка ясно +10.7 +9.3 91 +10 +10 тепло 1020.7 1008.8
штиль 0 8000 м дымка ясно +9.7 +8.3 91 +9 +9 тепло 1021.2 1009.2
З 1 6000 м дымка ясно +10.8 +9.9 94 +10 +10 тепло 1021.6 1009.7
Ю 2 6000 м дымка ясно +11.5 +9.4 87 +10 +10 тепло 1021.9 1010.0
Ю 2 8000 м дымка ясно +11.5 +9.2 86 +10 +10 тепло 1021.8 1009.9
Ю 2 5000 м дымка 3/0
[Ci fib]
+11.1 +9.2 88 +10 +10 тепло 1022.6 1010.7 +9.4
Ю 2 10 км 3/0
[Ci fib]
+13.7 +9.7 77 +13 +14 тепло 1022.7 1010.9
ЮЗ 2 10 км ясно +16.3 +10.3 68 +16 +20 тепло 1022.9 1011.2
Ю 1 10 км ясно +19.9 +10.6 55 +22 +28 комфорт 1023.1 1011.5
ЮЗ 1 10 км ясно +22.2 +10.6 48 +24 +31 комфорт 1022.9 1011.4
ЮЗ 1 10 км ясно +24.6 +10.9 42 +26 +33 жарко 1022.4 1011.0
З 1 10 км ясно +26.0 +10.6 38 +27 +33 жарко 1022.1 1010.8
СЗ 2 10 км ясно +26.7 +10.4 36 +27 +31 жарко 1021.6 1010.3
штиль 0 10 км ясно +26.7 +9.6 34 +27 +30 жарко 1021.3 1010.0
штиль 0 10 км ясно +26.0 +9.4 35 +26 +27 жарко 1021.3 1010.0
СВ 1 10 км ясно +22.5 +10.2 46 +24 +24 комфорт 1021.6 1010.1
СВ 1 10 км ясно +22.3 +10.5 47 +24 +24 комфорт 1021.8 1010.3
ЮВ 1 10 км ясно +20.0 +10.2 53 +22 +22 комфорт 1022.2 1010.6 +26.8
ЮВ 1 10 км ясно +16.9 +10.3 65 +18 +18 тепло 1022.4 1010.7
Ю 2 10 км ясно +18.6 +10.5 59 +20 +20 тепло 1022.3 1010.7
ЮЗ 1 10 км ясно +14.2 +9.9 75 +15 +15 тепло 1022.8 1011.0
штиль 0 10 км ясно +14.1 +10.7 80 +14 +14 тепло 1023.1 1011.3
Ю 1 9000 м дымка ясно +13.0 +9.5 79 +13 +13 тепло 1023.1 1011.2
штиль 0 8000 м дымка ясно +12.2 +10.0 86 +12 +12 тепло 1023.2 1011.3
Ю 2 9000 м дымка ясно +13.1 +9.7 80 +12 +12 тепло 1023.2 1011.3
Ю 2 9000 м дымка ясно +13.6 +10.8 83 +13 +13 тепло 1023.2 1011.4
Ю 2 8000 м дымка ясно +13.2 +10.6 84 +12 +12 тепло 1023.4 1011.5
штиль 0 2000 м местами туман поземный ясно +9.3 +9.0 98 +8 +8 тепло 1023.7 1011.7
Ю 1 4000 м дымка ясно +10.3 +9.2 93 +10 +10 тепло 1024.2 1012.2 +8.8
Ю 1 6000 м дымка ясно +13.0 +10.4 84 +13 +15 тепло 1024.5 1012.6
Ю 1 8000 м дымка ясно +17.5 +10.7 64 +19 +22 тепло 1024.5 1012.8
штиль 0 8000 м дымка ясно +20.8 +10.5 52 +22 +29 комфорт 1024.4 1012.8
штиль 0 8000 м дымка ясно +23.8 +10.5 43 +25 +33 комфорт 1024.0 1012.6
СВ 1 8000 м дымка ясно +25.1 +10.6 40 +26 +33 жарко 1023.5 1012.1
В 1 10 км ясно +26.2 +10.1 36 +27 +33 жарко 1022.7 1011.4
Местоположение метеостанции Белград аэропорт (Сербия): широта 44.82 долгота 20.28 высота над уровнем моря 99 м.
В архиве по умолчанию представлена погода в Белград аэропорту за последнюю неделю. Архивные данные за месяц целиком и за предыдущие месяцы, начиная с января 2011 года, Вы можете получить, выбрав интересующий диапазон дат из раскрывающегося списка и нажав кнопку "Найти!".
*Определитесь, кто Вы:
Внимание! Время в таблицах - всемирное. Для получения местного времени необходимо прибавить поправку, которая равна 1 ч.
Смотрите также архив погоды в соседних городах и на ближайших метеорологических станциях:
Партнеры нашего сайта:      
Пояснения к столбцам:
  • Ветер - указаны скорость ветра в м/с - средняя за 10 мин, порывы в срок и между сроками (в фигурных скобках) и направление, откуда дует ветер: С - северный,
  • СВ - северо-восточный, В - восточный, ЮВ - юго-восточный, Ю - южный, ЮЗ - юго-западный, З - западный, СЗ - северо-западный.
  • Видимость - горизонтальная дальность видимости в метрах или километрах. При видимости от 1 до 10 км при отсутствии осадков обычно наблюдается дымка, при ухудшении видимости до 1 км и менее - туман. В сухую погоду видимость может ухудшаться дымом, пылью или мглою.
  • Явления - указаны атмосферные явления, наблюдавшиеся в срок или в последний час перед сроком; фигурными скобками обозначены явления, наблюдавшиеся между сроками (за 1-3 часа до срока); квадратными скобками обозначены град или гололедные отложения с указанием их диаметра в мм.
  • Облачность - указаны через наклонную черту общая и нижняя облачность в баллах и высота нижней границы облаков в метрах; квадратными скобками обозначены формы облаков: Ci - перистые, Cs - перисто-слоистые, Cc - перисто-кучевые, Ac - высококучевые, As - высокослоистые, Sc - слоисто-кучевые, Ns - слоисто-дождевые, Cu - кучевые, Cb - кучево-дождевые. Подробнее классификацию облаков см. в Атласе облаков (PDF).
  • T - Температура воздуха - температура, измеренная на высоте 2 м над землей.
  • Td - Температура точки росы - температура, при понижении до которой содержащийся в воздухе водяной пар достигнет насыщения.
  • f - Относительная влажность воздуха - влажноcть воздуха, измеренная на высоте 2 м над землей.
  • Te - Эффективная температура - температура, которую ощущает одетый по сезону человек в тени. Характеристика душности погоды. При расчете учитывается влияние влажности воздуха и скорости ветра на теплоощущения человека.
  • Tes - Эффективная температура на солнце - температура, которую ощущает человек, с поправкой на солнечный нагрев. Характеристика знойности погоды. Зависит от высоты солнца над горизонтом, облачности и скорости ветра. Ночью, в пасмурную погоду, а также при ветре 12 м/с и более поправка равна нулю.
  • P - Атмосферное давление - приведенное к уровню моря атмосферное давление.
  • Po - Атмосферное давление - измеренное на уровне метеостанции атмосферное давление.
  • Tmin - Минимальная температура - минимум температуры воздуха на высоте 2 м над землей.
  • Tmax - Максимальная температура - максимум температуры воздуха на высоте 2 м над землей.
  • R - Количество осадков - Количество выпавших осадков за период времени, мм. При наведении курсора мыши на число - период времени, за который выпало указанное количество осадков.
  • R24 - Количество осадков - Количество выпавших осадков за 24 часа, мм.
  • S - Снежный покров - Высота снежного покрова, см. При наведении курсора мыши на число - состояние снежного покрова и степень покрытия местности в баллах.